Location: Aix-en-Ergny
(50.5839°N, 1.9996°E)
Time: 15:34:09
(UTC+00:00)

Cosmos 1726 - Pass Details

Date: 23 October 2019
Orbit: 483 x 500 km, 82.5° (Epoch: 21 November)

Event Time Altitude Azimuth Distance (km) Brightness Sun altitude
Rises 05:31:25 0° 335° (NNW) 2,568 5.4 -9.5°
Reaches altitude 10° 05:34:06 10° 314° (NW) 1,683 4.3 -9.1°
Maximum altitude 05:36:26 16° 274° (W) 1,332 3.6 -8.7°
Drops below altitude 10° 05:38:47 10° 234° (SW) 1,679 4.4 -8.3°
Sets 05:41:28 0° 213° (SSW) 2,557 5.5 -7.9°
